Regional Weather Roundup
Issued by NWS

Home | Current Version | Previous Version | Graphics & Text | Print | Product List | Glossary On
Versions: 1 2 3 4 5 6 7 8 9 10 11 12 13 14 15 16 17 18 19 20 21 22 23 24 25 26 27 28 29 30 31 32 33 34 35 36 37 38 39 40 41 42 43 44 45 46 47 48 49 50
000
ASUS45 KCYS 031210
RWRWY

WYOMING REGIONAL WEATHER ROUNDUP
NATIONAL WEATHER SERVICE CHEYENNE WY
600 AM MDT TUE MAY 03 2016

NOTE:  "FAIR" INDICATES FEW OR NO CLOUDS BELOW 12,000 FEET
WITH NO SIGNIFICANT WEATHER AND/OR OBSTRUCTIONS TO VISIBILITY.

WYZ001-031300-
YELLOWSTONE NATIONAL PARK

CITY           SKY/WX    TMP DP  RH WIND       PRES   REMARKS
LK YELLOWSTONE   N/A     25  21  85 CALM      30.34S
6HR MIN TEMP:  25; 6HR MAX TEMP:  31;

W YELLOWSTONE  NOT AVBL

$$
WYZ002>013-054>058-071-098>099-031300-
NORTHERN WYOMING

CITY           SKY/WX    TMP DP  RH WIND       PRES   REMARKS
JACKSON        FAIR      27  25  93 N3        30.30S
CODY           FAIR      46  28  49 S6        30.18S
GREYBULL       FAIR      39  29  67 SE5       30.17R
6HR MIN TEMP:  38; 6HR MAX TEMP:  57;

WORLAND        FAIR      38  33  82 S6        30.17R WCI  33
6HR MIN TEMP:  38; 6HR MAX TEMP:  46;

SHERIDAN       FAIR      37  31  78 CALM      30.15R
6HR MIN TEMP:  36; 6HR MAX TEMP:  49;

BUFFALO        NOT AVBL
GILLETTE       FAIR      41  35  79 W10       30.14R
6HR MIN TEMP:  41; 6HR MAX TEMP:  45;

HULETT         FAIR      39  34  81 S7        30.13S WCI  34
NEWCASTLE      FAIR      37  30  75 CALM      30.13R

$$
WYZ014>020-022>026-101>103-031300-
CENTRAL WYOMING

CITY           SKY/WX    TMP DP  RH WIND       PRES   REMARKS
BIG PINEY      FAIR      28  19  69 CALM      30.29R
6HR MIN TEMP:  25; 6HR MAX TEMP:  38;

PINEDALE       FAIR      25  21  86 NW5       30.30R WCI  19
DUBOIS         FAIR      30  21  69 W10       30.28S WCI  21
LANDER         FAIR      43  25  49 CALM      30.21R
6HR MIN TEMP:  36; 6HR MAX TEMP:  46;

RIVERTON       FAIR      38  30  73 W10       30.22R WCI  31
6HR MIN TEMP:  38; 6HR MAX TEMP:  47;

CASPER         FAIR      34  29  82 W8        30.21R WCI  27
6HR MIN TEMP:  32; 6HR MAX TEMP:  37;

DOUGLAS        FAIR      36  33  89 NW9       30.19R WCI  29
6HR MIN TEMP:  36; 6HR MAX TEMP:  41;


$$
WYZ021-027>030-104>119-031300-
SOUTHERN WYOMING

CITY           SKY/WX    TMP DP  RH WIND       PRES   REMARKS
EVANSTON       FAIR      33  23  66 S6        30.28R WCI  28
6HR MIN TEMP:  32; 6HR MAX TEMP:  45;

KEMMERER         N/A     32  21  64 N12       30.28S WCI  23
FORT BRIDGER   SUNNY     37  25  60 W9        30.29S WCI  31
ROCK SPRINGS   FAIR      34  20  56 CALM      30.27R
6HR MIN TEMP:  32; 6HR MAX TEMP:  44;

DIXON          FAIR      32  23  70 CALM      30.29R
RAWLINS        FAIR      29  24  82 CALM      30.26S
6HR MIN TEMP:  29; 6HR MAX TEMP:  34;

SARATOGA       FAIR      27  23  86 S5        30.27S WCI  21
LARAMIE        FAIR      26  23  88 CALM      30.24R
6HR MIN TEMP:  25; 6HR MAX TEMP:  31;

CHEYENNE       MOCLDY    41  28  60 NW10      30.17R
6HR MIN TEMP:  40; 6HR MAX TEMP:  44;

TORRINGTON     FAIR      41  33  73 NW6       30.12R
6HR MIN TEMP:  40; 6HR MAX TEMP:  49; 6HR PCP: TRACE;

PINE BLUFFS    FAIR      37  32  81 NW10      30.15R WCI  30

$$



USA.gov is the U.S. government's official web portal to all federal, state and local government web resources and services.